DW6610 Weather Reports


Display with metric or nautical units.
time (UTC)temp
F
wind
direction
speed
MPH
gust
MPH
rain 1hr
in
rain 24hr
in
rain mn
in
humidity
%
barometer
mb
20260509021553 64 53 1.0 6.0 0.00 0.00 0.00 71 1011.8
20260509021051 64 28 1.0 6.0 0.00 0.00 0.00 70 1011.5
20260509020551 64 55 1.0 3.0 0.00 0.00 0.00 70 1011.5
20260509020057 64 53 1.0 3.0 0.00 0.00 0.00 69 1011.3
20260509015552 65 46 1.0 3.0 0.00 0.00 0.00 69 1011.3
20260509015051 65 63 0.0 3.0 0.00 0.00 0.00 69 1011.2
20260509014553 65 60 1.0 3.0 0.00 0.00 0.00 68 1011.2
20260509014051 65 78 0.0 3.0 0.00 0.00 0.00 68 1011.1
20260509013551 66 58 0.0 3.0 0.00 0.00 0.00 67 1011.3
20260509013109 66 51 1.0 3.0 0.00 0.00 0.00 67 1011.2
20260509012548 66 63 1.0 3.0 0.00 0.00 0.00 66 1011.4
20260509012051 66 60 1.0 3.0 0.00 0.00 0.00 65 1011.3
20260509011603 67 82 0.0 3.0 0.00 0.00 0.00 64 1011.4
20260509011050 67 75 0.0 3.0 0.00 0.00 0.00 64 1011.4
20260509010552 67 51 1.0 3.0 0.00 0.00 0.00 63 1011.3
20260509010051 68 63 0.0 2.0 0.00 0.00 0.00 62 1011.3
20260509005553 68 74 0.0 2.0 0.00 0.00 0.00 61 1011.3
20260509005051 69 0 0.0 2.0 0.00 0.00 0.00 60 1011.2
20260509004602 69 0 0.0 2.0 0.00 0.00 0.00 59 1011.2
20260509004052 70 0 0.0 2.0 0.00 0.00 0.00 58 1011.2
20260509003555 70 51 0.0 2.0 0.00 0.00 0.00 57 1011.2
20260509003113 71 76 0.0 4.0 0.00 0.00 0.00 56 1011.3
20260509002551 71 79 0.0 7.0 0.00 0.00 0.00 55 1011.1
20260509002051 72 15 2.0 7.0 0.00 0.00 0.00 54 1011.1
20260509001602 72 27 1.0 5.0 0.00 0.00 0.00 53 1011.0
20260509001052 73 11 2.0 5.0 0.00 0.00 0.00 51 1011.1
20260509000551 74 93 1.0 9.0 0.00 0.00 0.00 51 1011.1
20260509000111 74 344 3.0 9.0 0.00 0.00 0.00 49 1011.1
20260508235552 75 100 2.0 5.0 0.00 0.00 0.00 50 1011.0
20260508235052 75 309 2.0 6.0 0.00 0.00 0.00 49 1011.1
20260508234554 76 60 2.0 6.0 0.00 0.00 0.00 48 1011.1
20260508234053 76 52 2.0 6.0 0.00 0.00 0.00 48 1011.1
20260508233549 76 79 3.0 5.0 0.00 0.00 0.00 48 1011.1
20260508233054 76 46 2.0 6.0 0.00 0.00 0.00 47 1011.1
20260508232550 76 35 3.0 6.0 0.00 0.00 0.00 46 1011.1
20260508232049 77 39 3.0 9.0 0.00 0.00 0.00 46 1011.2
20260508231559 77 53 3.0 9.0 0.00 0.00 0.00 46 1011.2
20260508231050 77 64 3.0 7.0 0.00 0.00 0.00 46 1011.1
20260508230549 77 73 3.0 7.0 0.00 0.00 0.00 46 1011.2
20260508230058 77 60 3.0 7.0 0.00 0.00 0.00 47 1011.3
20260508225549 78 67 2.0 8.0 0.00 0.00 0.00 47 1011.3
20260508225052 78 49 2.0 9.0 0.00 0.00 0.00 46 1011.4
20260508224604 78 22 3.0 9.0 0.00 0.00 0.00 45 1011.5
20260508224052 78 30 2.0 8.0 0.00 0.00 0.00 45 1011.4
20260508223550 78 346 3.0 8.0 0.00 0.00 0.00 44 1011.5
20260508223055 79 308 2.0 5.0 0.00 0.00 0.00 44 1011.5
20260508222549 79 93 1.0 5.0 0.00 0.00 0.00 44 1011.4
20260508222052 78 71 2.0 6.0 0.00 0.00 0.00 44 1011.6
20260508221555 78 77 2.0 6.0 0.00 0.00 0.00 44 1011.5
20260508221050 79 101 2.0 6.0 0.00 0.00 0.00 45 1011.6
20260508220549 78 75 2.0 10.0 0.00 0.00 0.00 43 1011.6
20260508220055 78 310 2.0 10.0 0.00 0.00 0.00 44 1011.6
20260508215549 78 4 4.0 10.0 0.00 0.00 0.00 45 1011.6
20260508215053 78 32 4.0 8.0 0.00 0.00 0.00 46 1011.7
20260508214555 78 70 2.0 7.0 0.00 0.00 0.00 47 1011.7
20260508214050 78 53 2.0 7.0 0.00 0.00 0.00 46 1011.6
20260508213550 78 84 3.0 8.0 0.00 0.00 0.00 46 1011.6
20260508213055 78 86 4.0 8.0 0.00 0.00 0.00 44 1011.7
20260508212551 78 74 3.0 6.0 0.00 0.00 0.00 44 1011.8
20260508212050 78 71 1.0 7.0 0.00 0.00 0.00 47 1011.8
20260508211552 78 68 3.0 7.0 0.00 0.00 0.00 44 1011.8
20260508211053 78 92 3.0 7.0 0.00 0.00 0.00 43 1012.0
20260508210550 78 300 2.0 9.0 0.00 0.00 0.00 43 1012.0
20260508210055 78 89 4.0 9.0 0.00 0.00 0.00 44 1011.9
20260508205549 78 153 3.0 9.0 0.00 0.00 0.00 45 1011.8
20260508205050 78 52 2.0 7.0 0.00 0.00 0.00 45 1011.9
20260508204552 78 93 3.0 10.0 0.00 0.00 0.00 46 1011.9
20260508204050 78 332 2.0 10.0 0.00 0.00 0.00 46 1012.1
20260508203549 78 287 3.0 6.0 0.00 0.00 0.00 45 1012.2
20260508203054 79 48 3.0 7.0 0.00 0.00 0.00 44 1012.3
20260508202551 79 333 2.0 7.0 0.00 0.00 0.00 43 1012.4
20260508202049 78 87 3.0 7.0 0.00 0.00 0.00 43 1012.5
20260508201602 78 262 2.0 6.0 0.00 0.00 0.00 45 1012.5
20260508201049 78 111 2.0 6.0 0.00 0.00 0.00 45 1012.5
20260508200550 78 99 2.0 6.0 0.00 0.00 0.00 47 1012.6
20260508200059 77 87 1.0 7.0 0.00 0.00 0.00 47 1012.7
20260508195549 77 268 3.0 7.0 0.00 0.00 0.00 46 1012.7
20260508195050 78 84 1.0 5.0 0.00 0.00 0.00 45 1012.7
20260508194557 77 58 2.0 5.0 0.00 0.00 0.00 44 1012.7
20260508194050 77 63 1.0 6.0 0.00 0.00 0.00 45 1012.7
20260508193551 77 298 3.0 6.0 0.00 0.00 0.00 44 1012.8
20260508193101 77 152 2.0 9.0 0.00 0.00 0.00 46 1012.9
20260508192549 77 60 2.0 9.0 0.00 0.00 0.00 42 1013.0
20260508192050 77 352 4.0 9.0 0.00 0.00 0.00 44 1013.1
20260508191553 78 79 2.0 7.0 0.00 0.00 0.00 45 1013.3
20260508191049 77 42 2.0 7.0 0.00 0.00 0.00 44 1013.3
20260508190610 77 80 2.0 9.0 0.00 0.00 0.00 48 1013.3
20260508190057 77 257 1.0 9.0 0.00 0.00 0.00 47 1013.3
20260508185553 76 18 2.0 9.0 0.00 0.00 0.00 45 1013.5
20260508185050 77 72 1.0 8.0 0.00 0.00 0.00 51 1013.6
20260508184609 76 47 2.0 8.0 0.00 0.00 0.00 47 1013.7
20260508184049 76 134 2.0 7.0 0.00 0.00 0.00 49 1013.9
20260508183549 76 295 2.0 9.0 0.00 0.00 0.00 45 1014.1
20260508183102 76 106 3.0 9.0 0.00 0.00 0.00 48 1014.4
20260508182549 76 260 1.0 10.0 0.00 0.00 0.00 48 1014.4
20260508182050 75 60 2.0 10.0 0.00 0.00 0.00 48 1014.5
20260508181552 75 86 1.0 6.0 0.00 0.00 0.00 44 1014.5
20260508181049 75 84 1.0 6.0 0.00 0.00 0.00 44 1014.8
20260508180553 75 316 3.0 7.0 0.00 0.00 0.00 44 1014.6
20260508180051 76 0 3.0 7.0 0.00 0.00 0.00 45 1014.6
20260508175549 76 25 2.0 6.0 0.00 0.00 0.00 47 1014.7
20260508175050 76 68 2.0 6.0 0.00 0.00 0.00 51 1014.9
20260508174604 76 13 2.0 8.0 0.00 0.00 0.00 49 1014.9
20260508174049 76 86 3.0 8.0 0.00 0.00 0.00 47 1014.9
20260508173550 76 105 2.0 5.0 0.00 0.00 0.00 48 1015.1
20260508173056 76 53 1.0 5.0 0.00 0.00 0.00 47 1015.1
20260508172553 76 79 1.0 4.0 0.00 0.00 0.00 48 1015.3
20260508172050 75 84 0.0 5.0 0.00 0.00 0.00 48 1015.4
20260508171557 75 273 2.0 5.0 0.00 0.00 0.00 47 1015.5
20260508171056 75 309 2.0 6.0 0.00 0.00 0.00 51 1015.6
20260508170556 74 78 1.0 6.0 0.00 0.00 0.00 50 1015.7
20260508170056 75 317 1.0 7.0 0.00 0.00 0.00 47 1015.8
20260508165549 74 114 1.0 7.0 0.00 0.00 0.00 50 1015.8
20260508165049 74 104 2.0 7.0 0.00 0.00 0.00 50 1016.0
20260508164605 74 89 2.0 7.0 0.00 0.00 0.00 54 1015.9
20260508164049 74 75 1.0 8.0 0.00 0.00 0.00 48 1016.0
20260508163549 74 82 3.0 8.0 0.00 0.00 0.00 50 1016.2
20260508163115 74 136 1.0 8.0 0.00 0.00 0.00 53 1016.3
20260508162550 73 192 2.0 8.0 0.00 0.00 0.00 50 1016.4
20260508162050 74 293 3.0 8.0 0.00 0.00 0.00 47 1016.4
20260508161557 74 49 2.0 6.0 0.00 0.00 0.00 50 1016.5
20260508161050 73 74 1.0 6.0 0.00 0.00 0.00 49 1016.5
20260508160549 73 285 1.0 6.0 0.00 0.00 0.00 49 1016.5
20260508160052 73 43 3.0 6.0 0.00 0.00 0.00 47 1016.6
20260508155551 73 307 1.0 5.0 0.00 0.00 0.00 48 1016.5
20260508155054 72 43 2.0 5.0 0.00 0.00 0.00 49 1016.5
20260508154600 73 86 1.0 5.0 0.00 0.00 0.00 51 1016.7
20260508154050 72 0 2.0 6.0 0.00 0.00 0.00 50 1016.7
20260508153550 71 279 1.0 6.0 0.00 0.00 0.00 53 1016.8
20260508153058 71 76 3.0 6.0 0.00 0.00 0.00 53 1017.0
20260508152551 71 79 2.0 6.0 0.00 0.00 0.00 54 1017.1
20260508152050 71 268 2.0 6.0 0.00 0.00 0.00 53 1017.1
20260508151552 71 87 2.0 7.0 0.00 0.00 0.00 57 1017.1
20260508151050 70 49 2.0 7.0 0.00 0.00 0.00 54 1017.3
20260508150549 70 91 2.0 5.0 0.00 0.00 0.00 56 1017.4
20260508150056 70 25 1.0 5.0 0.00 0.00 0.00 58 1017.3
20260508145550 69 159 1.0 5.0 0.00 0.00 0.00 59 1017.3
20260508145049 69 11 1.0 7.0 0.00 0.00 0.00 61 1017.3
20260508144610 69 74 3.0 7.0 0.00 0.00 0.00 61 1017.4
20260508144050 69 301 2.0 5.0 0.00 0.00 0.00 60 1017.4
20260508143552 68 128 2.0 6.0 0.00 0.00 0.00 62 1017.5
20260508143056 68 41 2.0 6.0 0.00 0.00 0.00 65 1017.6
20260508142552 68 103 2.0 6.0 0.00 0.00 0.00 63 1017.6
20260508142055 68 82 1.0 4.0 0.00 0.00 0.00 62 1017.6
20260508141552 67 260 1.0 5.0 0.00 0.00 0.00 62 1017.6
20260508141050 67 89 1.0 5.0 0.00 0.00 0.00 68 1017.6
20260508140550 67 243 1.0 3.0 0.00 0.00 0.00 67 1017.6
20260508140053 66 84 0.0 3.0 0.00 0.00 0.00 68 1017.5
20260508135550 66 91 0.0 3.0 0.00 0.00 0.00 70 1017.5
20260508135052 65 39 1.0 3.0 0.00 0.00 0.00 72 1017.6
20260508134557 64 26 0.0 5.0 0.00 0.00 0.00 71 1017.6
20260508134050 63 77 1.0 5.0 0.00 0.00 0.00 72 1017.5
20260508133555 63 82 1.0 3.0 0.00 0.00 0.00 72 1017.7
20260508133100 62 82 1.0 3.0 0.00 0.00 0.00 75 1017.9
20260508132549 62 18 1.0 3.0 0.00 0.00 0.00 75 1018.0
20260508132050 61 79 0.0 2.0 0.00 0.00 0.00 78 1018.0
20260508131558 60 59 0.0 2.0 0.00 0.00 0.00 78 1018.0
20260508131050 60 70 0.0 1.0 0.00 0.00 0.00 83 1017.9
20260508130549 58 69 0.0 2.0 0.00 0.00 0.00 85 1017.9
20260508130107 57 69 0.0 3.0 0.00 0.00 0.00 90 1017.9
20260508125552 55 80 0.0 3.0 0.00 0.00 0.00 92 1018.0
20260508125051 53 67 1.0 3.0 0.00 0.00 0.00 95 1018.0
20260508124554 52 57 0.0 2.0 0.00 0.00 0.00 99 1017.9
20260508124051 51 79 0.0 2.0 0.00 0.00 0.00 100 1018.0
20260508123555 50 60 0.0 2.0 0.00 0.00 0.00 100 1017.9
20260508123056 48 0 1.0 2.0 0.00 0.00 0.00 100 1018.0
20260508122551 48 72 0.0 2.0 0.00 0.00 0.00 100 1017.9
20260508122052 47 59 0.0 1.0 0.00 0.00 0.00 100 1018.0
20260508121552 46 116 0.0 1.0 0.00 0.00 0.00 100 1018.0
20260508121051 46 116 0.0 1.0 0.00 0.00 0.00 100 1017.8
20260508120549 46 0 0.0 1.0 0.00 0.00 0.00 100 1017.8
20260508120050 45 0 0.0 1.0 0.00 0.00 0.00 100 1017.8
20260508115552 44 116 0.0 0.0 0.00 0.00 0.00 99 1017.7
20260508115051 44 0 0.0 0.0 0.00 0.00 0.00 99 1017.6
20260508114556 44 0 0.0 0.0 0.00 0.00 0.00 99 1017.6
20260508114051 44 0 0.0 0.0 0.00 0.00 0.00 99 1017.4
20260508113551 44 0 0.0 0.0 0.00 0.00 0.00 99 1017.4
20260508113058 44 0 0.0 0.0 0.00 0.00 0.00 99 1017.3
20260508112551 44 0 0.0 0.0 0.00 0.00 0.00 99 1017.2
20260508112051 44 0 0.0 0.0 0.00 0.00 0.00 99 1017.2
20260508111553 44 0 0.0 0.0 0.00 0.00 0.00 99 1017.0
20260508111052 44 0 0.0 0.0 0.00 0.00 0.00 99 1017.1
20260508110550 44 0 0.0 0.0 0.00 0.00 0.00 99 1017.1
20260508110110 44 0 0.0 0.0 0.00 0.00 0.00 99 1017.1
20260508105552 44 0 0.0 0.0 0.00 0.00 0.00 99 1017.1
20260508105053 44 0 0.0 0.0 0.00 0.00 0.00 99 1017.0
20260508104557 44 0 0.0 0.0 0.00 0.00 0.00 99 1017.0
20260508104049 44 0 0.0 0.0 0.00 0.00 0.00 99 1017.0
20260508103551 44 0 0.0 0.0 0.00 0.00 0.00 99 1017.0
20260508103054 44 0 0.0 0.0 0.00 0.00 0.00 99 1017.2
20260508102550 44 0 0.0 0.0 0.00 0.00 0.00 99 1017.1
20260508102052 44 0 0.0 0.0 0.00 0.00 0.00 99 1017.1
20260508101556 45 0 0.0 0.0 0.00 0.00 0.00 99 1017.2
20260508101052 45 0 0.0 0.0 0.00 0.00 0.00 99 1017.1
20260508100551 45 0 0.0 0.0 0.00 0.00 0.00 99 1017.1
20260508100054 45 0 0.0 0.0 0.00 0.00 0.00 99 1017.1
20260508095552 45 0 0.0 0.0 0.00 0.00 0.00 99 1017.2
20260508095054 45 0 0.0 0.0 0.00 0.00 0.00 99 1017.1
20260508094558 45 0 0.0 0.0 0.00 0.00 0.00 99 1017.1
20260508094051 45 0 0.0 0.0 0.00 0.00 0.00 99 1017.0
20260508093552 45 0 0.0 0.0 0.00 0.00 0.00 99 1017.0
20260508093058 45 0 0.0 0.0 0.00 0.00 0.00 98 1017.1
20260508092552 45 0 0.0 0.0 0.00 0.00 0.00 98 1017.1
20260508092049 46 0 0.0 0.0 0.00 0.00 0.00 99 1017.2
20260508091552 46 0 0.0 0.0 0.00 0.00 0.00 99 1017.0
20260508091051 46 0 0.0 0.0 0.00 0.00 0.00 99 1016.9
20260508090550 46 0 0.0 0.0 0.00 0.00 0.00 99 1016.8
20260508090107 46 0 0.0 0.0 0.00 0.00 0.00 99 1016.9
20260508085551 46 0 0.0 0.0 0.00 0.00 0.00 99 1016.9
20260508085050 46 0 0.0 0.0 0.00 0.00 0.00 99 1016.9
20260508084554 46 0 0.0 0.0 0.00 0.00 0.00 99 1016.7
20260508084052 46 0 0.0 0.0 0.00 0.00 0.00 99 1016.7
20260508083551 46 0 0.0 0.0 0.00 0.00 0.00 99 1016.7
20260508083051 46 0 0.0 0.0 0.00 0.00 0.00 98 1016.7
20260508082550 46 0 0.0 0.0 0.00 0.00 0.00 98 1016.7
20260508082051 46 0 0.0 0.0 0.00 0.00 0.00 98 1016.7
20260508081559 47 0 0.0 0.0 0.00 0.00 0.00 98 1016.7
20260508081051 47 0 0.0 0.0 0.00 0.00 0.00 98 1016.8
20260508080552 47 0 0.0 0.0 0.00 0.00 0.00 98 1016.8
20260508080053 47 0 0.0 0.0 0.00 0.00 0.00 98 1016.8
20260508075552 47 0 0.0 0.0 0.00 0.00 0.00 98 1017.0
20260508075051 47 0 0.0 0.0 0.00 0.00 0.00 98 1016.9
20260508074554 48 0 0.0 0.0 0.00 0.00 0.00 98 1016.9
20260508074052 48 0 0.0 0.0 0.00 0.00 0.00 98 1016.9
20260508073552 48 0 0.0 0.0 0.00 0.00 0.00 98 1016.9
20260508073056 48 0 0.0 0.0 0.00 0.00 0.00 98 1017.0
20260508072552 48 0 0.0 0.0 0.00 0.00 0.00 98 1016.9
20260508072050 48 0 0.0 0.0 0.00 0.00 0.00 98 1017.0
20260508071554 48 0 0.0 0.0 0.00 0.00 0.00 98 1017.1
20260508071052 48 0 0.0 1.0 0.00 0.00 0.00 98 1017.0
20260508070552 48 0 0.0 1.0 0.00 0.00 0.00 98 1017.0
20260508070056 49 0 0.0 1.0 0.00 0.00 0.00 98 1017.1
20260508065555 49 0 0.0 0.0 0.00 0.00 0.00 98 1017.2
20260508065051 49 0 0.0 1.0 0.00 0.00 0.00 98 1017.2
20260508064554 49 0 0.0 1.0 0.00 0.00 0.00 98 1017.4
20260508064051 49 0 0.0 0.0 0.00 0.00 0.00 98 1017.4
20260508063552 49 0 0.0 0.0 0.00 0.00 0.00 98 1017.4
20260508063056 49 0 0.0 0.0 0.00 0.00 0.00 98 1017.4
20260508062551 49 0 0.0 0.0 0.00 0.00 0.00 98 1017.5
20260508062050 49 0 0.0 0.0 0.00 0.00 0.00 97 1017.4
20260508061556 49 0 0.0 0.0 0.00 0.00 0.00 97 1017.4
20260508061050 49 0 0.0 0.0 0.00 0.00 0.00 97 1017.4
20260508060550 50 0 0.0 0.0 0.00 0.00 0.00 97 1017.4
20260508060054 50 0 0.0 0.0 0.00 0.00 0.00 97 1017.4
20260508055550 50 0 0.0 0.0 0.00 0.00 0.00 97 1017.5
20260508055052 50 0 0.0 0.0 0.00 0.00 0.00 97 1017.5
20260508054635 50 0 0.0 0.0 0.00 0.00 0.00 96 1017.4
20260508054051 50 0 0.0 0.0 0.00 0.00 0.00 96 1017.5
20260508053555 50 0 0.0 1.0 0.00 0.00 0.00 96 1017.4
20260508053051 50 0 0.0 1.0 0.00 0.00 0.00 96 1017.4
20260508052555 50 0 0.0 1.0 0.00 0.00 0.00 97 1017.6
20260508052051 50 116 0.0 0.0 0.00 0.00 0.00 96 1017.5
20260508051551 50 0 0.0 0.0 0.00 0.00 0.00 96 1017.6
20260508051051 50 0 0.0 0.0 0.00 0.00 0.00 96 1017.4
20260508050553 51 0 0.0 0.0 0.00 0.00 0.00 96 1017.5
20260508050054 50 0 0.0 0.0 0.00 0.00 0.00 95 1017.6
20260508045551 51 0 0.0 0.0 0.00 0.00 0.00 95 1017.5
20260508045051 51 0 0.0 1.0 0.00 0.00 0.00 95 1017.5
20260508044600 51 0 0.0 1.0 0.00 0.00 0.00 95 1017.6
20260508044050 51 116 0.0 1.0 0.00 0.00 0.00 95 1017.6
20260508043550 51 0 0.0 1.0 0.00 0.00 0.00 95 1017.7
20260508043050 51 0 0.0 0.0 0.00 0.00 0.00 95 1017.8
20260508042550 51 0 0.0 0.0 0.00 0.00 0.00 94 1017.7
20260508042051 51 0 0.0 1.0 0.00 0.00 0.00 95 1017.7
20260508041600 51 0 0.0 1.0 0.00 0.00 0.00 94 1017.7
20260508041052 52 0 0.0 1.0 0.00 0.00 0.00 94 1017.7
20260508040551 52 0 0.0 1.0 0.00 0.00 0.00 94 1017.7
20260508040057 52 116 0.0 1.0 0.00 0.00 0.00 94 1017.7
20260508035551 52 117 0.0 1.0 0.00 0.00 0.00 94 1017.8
20260508035051 52 117 0.0 0.0 0.00 0.00 0.00 94 1017.6
20260508034602 52 0 0.0 0.0 0.00 0.00 0.00 94 1017.5
20260508034051 52 0 0.0 0.0 0.00 0.00 0.00 93 1017.6
20260508033552 52 0 0.0 1.0 0.00 0.00 0.00 93 1017.5
20260508033051 52 0 0.0 1.0 0.00 0.00 0.00 93 1017.6
20260508032556 52 0 0.0 0.0 0.00 0.00 0.00 93 1017.5
20260508032055 53 0 0.0 0.0 0.00 0.00 0.00 92 1017.7
20260508031602 53 0 0.0 0.0 0.00 0.00 0.00 93 1017.8
20260508031053 53 0 0.0 0.0 0.00 0.00 0.00 92 1017.7
20260508030552 53 0 0.0 0.0 0.00 0.00 0.00 92 1017.7
20260508030112 53 0 0.0 0.0 0.00 0.00 0.00 91 1017.6
20260508025551 54 0 0.0 0.0 0.00 0.00 0.00 90 1017.6
20260508025051 54 0 0.0 0.0 0.00 0.00 0.00 90 1017.7
20260508024606 54 0 0.0 0.0 0.00 0.00 0.00 90 1017.6
20260508024051 55 0 0.0 0.0 0.00 0.00 0.00 89 1017.6
20260508023553 55 0 0.0 0.0 0.00 0.00 0.00 88 1017.6
20260508023103 55 0 0.0 0.0 0.00 0.00 0.00 88 1017.4
20260508022551 55 0 0.0 0.0 0.00 0.00 0.00 86 1017.3
20260508022051 55 0 0.0 0.0 0.00 0.00 0.00 86 1017.3